CW6888 Weather Reports


Display with metric or nautical units.
time (UTC)temp
F
wind
direction
speed
MPH
gust
MPH
rain 1hr
in
rain 24hr
in
rain mn
in
humidity
%
barometer
mb
20260510222817 62 355 2.0 9.0 0.02 0.02 0.02 84 1015.3
20260510221851 64 5 5.0 10.0 0.01 0.01 0.01 82 1015.4
20260510220823 65 5 3.0 5.0 0.00 0.00 0.00 79 1015.5
20260510215830 66 27 4.0 6.0 0.00 0.00 0.00 77 1015.5
20260510214823 66 44 4.0 8.0 0.00 0.00 0.00 76 1015.0
20260510213835 66 45 1.0 4.0 0.00 0.00 0.00 77 1014.6
20260510212845 67 34 2.0 5.0 0.00 0.00 0.00 76 1014.3
20260510211818 67 5 2.0 9.0 0.00 0.00 0.00 76 1014.2
20260510210829 67 29 5.0 10.0 0.00 0.00 0.00 75 1014.0
20260510205853 68 15 3.0 8.0 0.00 0.00 0.00 74 1013.9
20260510204823 69 48 4.0 9.0 0.00 0.00 0.00 73 1013.8
20260510203814 69 360 4.0 8.0 0.00 0.00 0.00 70 1013.8
20260510202828 70 63 1.0 4.0 0.00 0.00 0.00 67 1013.7
20260510201815 71 5 2.0 6.0 0.00 0.00 0.00 64 1013.7
20260510200836 72 22 4.0 9.0 0.00 0.00 0.00 63 1013.7
20260510195825 72 27 4.0 9.0 0.00 0.00 0.00 63 1013.8
20260510194838 72 32 3.0 13.0 0.00 0.00 0.00 63 1014.0
20260510193824 73 45 0.0 4.0 0.00 0.00 0.00 63 1014.0
20260510192817 73 347 1.0 8.0 0.00 0.00 0.00 61 1014.0
20260510191830 73 22 2.0 9.0 0.00 0.00 0.00 60 1014.0
20260510190848 74 40 3.0 9.0 0.00 0.00 0.00 60 1014.0
20260510185832 75 22 4.0 6.0 0.00 0.00 0.00 58 1014.0
20260510184824 76 141 2.0 6.0 0.00 0.00 0.00 57 1013.9
20260510183817 75 38 3.0 4.0 0.00 0.00 0.00 57 1014.0
20260510182828 75 349 2.0 6.0 0.00 0.00 0.00 60 1014.0
20260510181821 75 5 3.0 5.0 0.00 0.00 0.00 57 1014.1
20260510180836 76 172 2.0 8.0 0.00 0.00 0.00 55 1014.0
20260510175838 74 150 3.0 15.0 0.00 0.00 0.00 59 1014.1
20260510174847 74 76 6.0 10.0 0.00 0.00 0.00 61 1014.2
20260510173818 74 113 2.0 6.0 0.00 0.00 0.00 60 1014.3
20260510172830 74 31 3.0 11.0 0.00 0.00 0.00 58 1014.4
20260510171843 74 28 4.0 9.0 0.00 0.00 0.00 61 1014.4
20260510170814 74 53 3.0 11.0 0.00 0.00 0.00 61 1014.5
20260510165820 73 309 1.0 6.0 0.00 0.00 0.00 64 1014.4
20260510164832 73 12 3.0 6.0 0.00 0.00 0.00 62 1014.6
20260510163825 73 346 1.0 4.0 0.00 0.00 0.00 61 1014.4
20260510162837 73 25 3.0 8.0 0.00 0.00 0.00 62 1014.3
20260510161828 74 164 2.0 8.0 0.00 0.00 0.00 63 1014.3
20260510160820 73 75 3.0 8.0 0.00 0.00 0.00 61 1014.2
20260510155826 73 78 2.0 6.0 0.00 0.00 0.00 61 1014.1
20260510154820 72 298 3.0 8.0 0.00 0.00 0.00 60 1014.0
20260510153814 72 42 1.0 8.0 0.00 0.00 0.00 63 1013.9
20260510152831 72 146 2.0 6.0 0.00 0.00 0.00 62 1014.1
20260510151816 71 94 1.0 4.0 0.00 0.00 0.00 67 1014.0
20260510150829 70 148 2.0 6.0 0.00 0.00 0.00 67 1014.2
20260510145815 69 93 3.0 6.0 0.00 0.00 0.00 67 1014.1
20260510144828 69 347 2.0 6.0 0.00 0.00 0.00 70 1014.1
20260510143820 68 155 3.0 6.0 0.00 0.00 0.00 70 1014.0
20260510142821 67 42 3.0 6.0 0.00 0.00 0.00 73 1014.0
20260510141814 67 183 2.0 5.0 0.00 0.00 0.00 73 1014.1
20260510140822 66 203 2.0 6.0 0.00 0.00 0.00 74 1013.9
20260510135856 65 218 3.0 4.0 0.00 0.00 0.00 76 1013.9
20260510134819 64 5 2.0 7.0 0.00 0.00 0.00 79 1013.9
20260510133830 62 65 1.0 4.0 0.00 0.00 0.00 81 1014.0
20260510132823 61 178 1.0 3.0 0.00 0.00 0.00 85 1014.1
20260510131816 59 187 1.0 5.0 0.00 0.00 0.00 87 1014.0
20260510130829 58 194 0.0 3.0 0.00 0.00 0.00 91 1014.0
20260510125818 57 189 0.0 2.0 0.00 0.00 0.00 92 1013.9
20260510124832 56 189 1.0 3.0 0.00 0.00 0.00 93 1014.0
20260510123826 55 114 0.0 0.0 0.00 0.00 0.00 93 1014.1
20260510122838 54 115 0.0 0.0 0.00 0.00 0.00 93 1013.9
20260510121821 54 172 0.0 1.0 0.00 0.00 0.00 93 1014.0
20260510120832 52 165 0.0 1.0 0.00 0.00 0.00 93 1014.0
20260510115843 52 99 0.0 0.0 0.00 0.00 0.00 93 1013.8
20260510114835 51 99 0.0 0.0 0.00 0.00 0.00 93 1013.6
20260510113827 51 94 0.0 0.0 0.00 0.00 0.00 93 1013.6
20260510112840 51 101 0.0 1.0 0.00 0.00 0.00 93 1013.5
20260510111851 51 261 0.0 1.0 0.00 0.00 0.00 93 1013.2
20260510110842 50 5 0.0 0.0 0.00 0.00 0.00 93 1013.1
20260510105822 50 5 0.0 0.0 0.00 0.00 0.00 93 1013.0
20260510104829 49 5 0.0 0.0 0.00 0.00 0.00 92 1013.0
20260510103813 49 13 1.0 3.0 0.00 0.00 0.00 92 1013.1
20260510102837 49 351 1.0 2.0 0.00 0.00 0.00 92 1013.1
20260510101818 48 40 0.0 2.0 0.00 0.00 0.00 92 1013.0
20260510100830 48 40 1.0 2.0 0.00 0.00 0.00 91 1012.9
20260510095814 48 329 0.0 1.0 0.00 0.00 0.00 92 1012.6
20260510094826 48 13 0.0 3.0 0.00 0.00 0.00 91 1012.5
20260510093818 49 13 0.0 0.0 0.00 0.00 0.00 91 1012.4
20260510092850 50 13 0.0 0.0 0.00 0.00 0.00 92 1012.0
20260510091820 50 13 0.0 0.0 0.00 0.00 0.00 92 1012.0
20260510090833 50 13 0.0 0.0 0.00 0.00 0.00 92 1011.9
20260510085817 50 13 0.0 0.0 0.00 0.00 0.00 92 1012.1
20260510084858 50 13 0.0 0.0 0.00 0.00 0.00 92 1012.0
20260510083821 50 13 0.0 0.0 0.00 0.00 0.00 91 1012.0
20260510082832 50 15 0.0 0.0 0.00 0.00 0.00 91 1012.1
20260510081824 50 15 0.0 0.0 0.00 0.00 0.00 91 1012.2
20260510080815 50 15 0.0 0.0 0.00 0.00 0.00 92 1012.0
20260510075820 50 14 0.0 3.0 0.00 0.00 0.00 92 1012.0
20260510074832 50 143 1.0 4.0 0.00 0.00 0.00 92 1011.9
20260510073824 49 82 2.0 9.0 0.00 0.00 0.00 91 1011.8
20260510072836 49 12 1.0 5.0 0.00 0.00 0.00 91 1012.2
20260510071843 49 11 0.0 0.0 0.00 0.00 0.00 92 1011.5
20260510070815 49 317 0.0 3.0 0.00 0.00 0.00 91 1011.5
20260510065850 48 26 0.0 0.0 0.00 0.00 0.00 90 1011.5
20260510064821 49 216 0.0 0.0 0.00 0.00 0.00 91 1011.1
20260510063833 48 216 0.0 0.0 0.00 0.00 0.00 90 1011.1
20260510062844 48 215 0.0 0.0 0.00 0.00 0.00 90 1011.2
20260510061834 48 215 0.0 0.0 0.00 0.00 0.00 90 1011.0
20260510060816 49 215 0.0 0.0 0.00 0.00 0.00 90 1011.1
20260510055830 49 215 0.0 0.0 0.00 0.00 0.00 90 1011.0
20260510054814 49 215 0.0 0.0 0.00 0.00 0.00 90 1011.1
20260510053834 49 215 0.0 0.0 0.00 0.00 0.00 89 1011.1
20260510052816 50 360 0.0 0.0 0.00 0.00 0.00 89 1011.1
20260510051858 50 360 0.0 0.0 0.00 0.00 0.00 89 1011.2
20260510050818 50 215 0.0 0.0 0.00 0.00 0.00 89 1011.3
20260510045830 51 215 0.0 0.0 0.00 0.00 0.00 89 1011.3
20260510044842 51 360 0.0 0.0 0.00 0.00 0.00 88 1011.3
20260510043828 51 360 0.0 0.0 0.00 0.00 0.00 88 1011.4
20260510042821 52 215 0.0 0.0 0.00 0.00 0.00 88 1011.4
20260510041832 53 215 0.0 0.0 0.00 0.00 0.00 88 1011.3
20260510040815 53 215 0.0 0.0 0.00 0.00 0.00 89 1011.4
20260510035830 52 360 0.0 0.0 0.00 0.00 0.00 88 1011.4
20260510034813 52 360 0.0 0.0 0.00 0.00 0.00 87 1011.4
20260510033853 53 215 0.0 0.0 0.00 0.00 0.00 86 1011.4
20260510032814 53 360 0.0 0.0 0.00 0.00 0.00 86 1011.5
20260510031836 54 215 0.0 0.0 0.00 0.00 0.00 87 1011.5
20260510030817 54 215 0.0 0.0 0.00 0.00 0.00 87 1011.4
20260510025835 54 215 0.0 0.0 0.00 0.00 0.00 86 1011.4
20260510024846 54 215 0.0 0.0 0.00 0.00 0.00 86 1011.3
20260510023837 55 216 0.0 0.0 0.00 0.00 0.00 85 1011.3
20260510022827 55 216 0.0 0.0 0.00 0.00 0.00 86 1011.2
20260510021822 55 216 0.0 0.0 0.00 0.00 0.00 85 1011.1
20260510020835 55 216 0.0 0.0 0.00 0.00 0.00 85 1011.1
20260510015821 55 216 0.0 0.0 0.00 0.00 0.00 85 1011.0
20260510014832 55 360 0.0 0.0 0.00 0.00 0.00 85 1011.0
20260510013815 56 216 0.0 0.0 0.00 0.00 0.00 84 1010.9
20260510012826 56 216 0.0 0.0 0.00 0.00 0.00 84 1010.7
20260510011818 56 216 0.0 0.0 0.00 0.00 0.00 83 1010.7
20260510010825 57 216 0.0 0.0 0.00 0.00 0.00 83 1010.5
20260510005832 57 216 0.0 0.0 0.00 0.00 0.00 83 1010.3
20260510004822 57 216 0.0 0.0 0.00 0.00 0.00 82 1010.2
20260510003813 58 216 0.0 0.0 0.00 0.00 0.00 82 1010.2
20260510002826 58 216 0.0 0.0 0.00 0.00 0.00 81 1010.1
20260510001821 58 216 0.0 0.0 0.00 0.00 0.00 81 1010.0
20260510000835 59 216 0.0 0.0 0.00 0.00 0.00 80 1010.0
20260509235819 59 216 0.0 1.0 0.00 0.00 0.00 80 1010.1
20260509234833 60 216 1.0 1.0 0.00 0.00 0.00 78 1010.0
20260509233815 61 113 0.0 0.0 0.00 0.00 0.00 78 1010.1
20260509232827 61 113 0.0 1.0 0.00 0.00 0.00 77 1010.1
20260509231850 62 113 1.0 3.0 0.00 0.00 0.00 76 1010.0
20260509230840 63 42 0.0 2.0 0.00 0.00 0.00 75 1009.9
20260509225826 64 42 1.0 4.0 0.00 0.00 0.00 74 1009.9
20260509224841 64 78 1.0 3.0 0.00 0.00 0.00 75 1010.0
20260509223825 64 121 0.0 5.0 0.00 0.00 0.00 74 1009.9